Location: Miss�
(46.9484°N, 0.1922°W)
Time: 22:36:23
(UTC+00:00)

Cosmos 2074 Rocket - Pass Details

Date: 02 March 2021
Orbit: 966 x 987 km, 82.9° (Epoch: 14 April)

Event Time Altitude Azimuth Distance (km) Brightness Sun altitude
Rises 18:52:46 0° 194° (SSW) 3,677 7.2 -11.8°
Reaches altitude 10° 18:55:17 10° 197° (SSW) 2,731 6.5 -12.3°
Maximum altitude 19:01:32 70° 281° (W) 1,042 4.4 -13.3°
Drops below altitude 10° 19:07:47 10° 5° (N) 2,735 6.4 -14.4°
Sets 19:10:20 0° 8° (N) 3,684 7.0 -14.8°
